Zurück zum Katalog

STARLINK-5141

AktivKommunikationVLEO
NORAD 55500·PAYLOAD·🇺🇸 United States

Gestartet Feb 2, 2023 von Cape Canaveral Space Force Station

Loading…

Nächste Überflüge (nächste 24 Stunden)

TLE

AktuellSource: CelesTrak SupGP

Epoche: Sep 14, 2026, 22:02 UTC

1 55500C 23015BD  26257.91854167 -.00053693  00000+0 -19445-2 0  2578
2 55500  43.0045 351.2591 0002136 282.2218  55.8037 15.27608676    13

Verfolge STARLINK-5141 in Echtzeit mit AllMySat

Download on the App Store